| time (UTC) | temp C | wind direction | speed KPH | gust KPH | rain 1hr cm | rain 24hr cm | rain mn cm | humidity % | barometer mb |
| 20260505040335 | 6 | 299 | 0.0 | 3.2 | 0.00 | 0.00 | 0.00 | 60 | 1013.1 |
| 20260505034858 | 6 | 310 | 0.0 | 4.8 | 0.00 | 0.00 | 0.00 | 59 | 1013.0 |
| 20260505033336 | 6 | 312 | 0.0 | 4.8 | 0.00 | 0.00 | 0.00 | 59 | 1012.9 |
| 20260505031836 | 6 | 330 | 0.0 | 3.2 | 0.00 | 0.00 | 0.00 | 57 | 1012.6 |
| 20260505030323 | 6 | 355 | 0.0 | 3.2 | 0.00 | 0.00 | 0.00 | 57 | 1012.5 |
| 20260505024845 | 6 | 298 | 0.0 | 0.0 | 0.00 | 0.00 | 0.00 | 56 | 1012.4 |
| 20260505023340 | 6 | 14 | 0.0 | 3.2 | 0.00 | 0.00 | 0.00 | 55 | 1012.3 |
| 20260505021845 | 7 | 355 | 0.0 | 3.2 | 0.00 | 0.00 | 0.00 | 55 | 1012.3 |
| 20260505020340 | 7 | 302 | 0.0 | 3.2 | 0.00 | 0.00 | 0.00 | 54 | 1012.2 |
| 20260505014901 | 7 | 14 | 0.0 | 3.2 | 0.00 | 0.00 | 0.00 | 52 | 1012.1 |
| 20260505013340 | 7 | 355 | 0.0 | 4.8 | 0.00 | 0.00 | 0.00 | 51 | 1012.0 |
| 20260505011859 | 7 | 50 | 0.0 | 3.2 | 0.00 | 0.00 | 0.00 | 50 | 1012.2 |
| 20260505010400 | 8 | 15 | 0.0 | 6.4 | 0.00 | 0.00 | 0.00 | 49 | 1012.3 |
| 20260505004837 | 8 | 360 | 3.2 | 9.7 | 0.00 | 0.00 | 0.00 | 48 | 1012.3 |
| 20260505003333 | 8 | 32 | 0.0 | 8.0 | 0.00 | 0.00 | 0.00 | 48 | 1012.3 |
| 20260505001840 | 9 | 360 | 1.6 | 6.4 | 0.00 | 0.00 | 0.00 | 46 | 1012.3 |
| 20260505000332 | 10 | 334 | 1.6 | 11.3 | 0.00 | 0.00 | 0.00 | 46 | 1012.3 |
| 20260504234837 | 10 | 11 | 1.6 | 12.9 | 0.00 | 0.00 | 0.00 | 46 | 1012.1 |
| 20260504233339 | 9 | 305 | 3.2 | 11.3 | 0.00 | 0.00 | 0.00 | 49 | 1012.0 |
| 20260504231850 | 9 | 5 | 1.6 | 16.1 | 0.00 | 0.00 | 0.00 | 49 | 1012.0 |
| 20260504230336 | 9 | 321 | 0.0 | 9.7 | 0.00 | 0.00 | 0.00 | 49 | 1012.1 |
| 20260504223322 | 9 | 284 | 1.6 | 9.7 | 0.00 | 0.00 | 0.00 | 48 | 1012.1 |
| 20260504221833 | 10 | 18 | 1.6 | 12.9 | 0.00 | 0.00 | 0.00 | 48 | 1012.0 |
| 20260504220340 | 10 | 28 | 1.6 | 9.7 | 0.00 | 0.00 | 0.00 | 47 | 1012.2 |
| 20260504214849 | 10 | 5 | 0.0 | 6.4 | 0.00 | 0.00 | 0.00 | 51 | 1012.2 |
| 20260504213347 | 9 | 313 | 1.6 | 12.9 | 0.00 | 0.00 | 0.00 | 50 | 1012.4 |
| 20260504211825 | 9 | 17 | 1.6 | 8.0 | 0.00 | 0.00 | 0.00 | 49 | 1012.4 |
| 20260504210329 | 9 | 14 | 0.0 | 11.3 | 0.00 | 0.00 | 0.00 | 48 | 1012.5 |
| 20260504204849 | 8 | 289 | 1.6 | 8.0 | 0.00 | 0.00 | 0.00 | 51 | 1012.8 |
| 20260504203412 | 7 | 333 | 0.0 | 4.8 | 0.00 | 0.00 | 0.00 | 53 | 1013.0 |
| 20260504201842 | 7 | 323 | 1.6 | 11.3 | 0.00 | 0.00 | 0.00 | 50 | 1012.9 |
| 20260504200356 | 8 | 261 | 1.6 | 11.3 | 0.00 | 0.00 | 0.00 | 51 | 1013.0 |
| 20260504194847 | 8 | 15 | 0.0 | 12.9 | 0.00 | 0.00 | 0.00 | 51 | 1013.0 |
| 20260504193334 | 8 | 24 | 1.6 | 12.9 | 0.00 | 0.00 | 0.00 | 50 | 1013.0 |
| 20260504191837 | 8 | 13 | 1.6 | 9.7 | 0.00 | 0.00 | 0.00 | 50 | 1012.9 |
| 20260504190351 | 8 | 9 | 1.6 | 11.3 | 0.00 | 0.00 | 0.00 | 51 | 1013.0 |
| 20260504184847 | 8 | 332 | 3.2 | 17.7 | 0.00 | 0.00 | 0.00 | 54 | 1013.0 |
| 20260504183338 | 8 | 311 | 6.4 | 11.3 | 0.00 | 0.00 | 0.00 | 53 | 1013.0 |
| 20260504181826 | 8 | 25 | 3.2 | 14.5 | 0.00 | 0.00 | 0.00 | 55 | 1013.3 |
| 20260504180341 | 8 | 14 | 1.6 | 9.7 | 0.00 | 0.00 | 0.00 | 55 | 1013.4 |
| 20260504174839 | 7 | 348 | 1.6 | 12.9 | 0.00 | 0.00 | 0.00 | 56 | 1013.5 |
| 20260504173336 | 7 | 272 | 3.2 | 11.3 | 0.00 | 0.00 | 0.00 | 56 | 1013.6 |
| 20260504171839 | 7 | 302 | 3.2 | 12.9 | 0.00 | 0.00 | 0.00 | 56 | 1013.7 |
| 20260504170332 | 7 | 270 | 3.2 | 11.3 | 0.00 | 0.00 | 0.00 | 58 | 1013.7 |
| 20260504160354 | 6 | 5 | 1.6 | 9.7 | 0.00 | 0.00 | 0.00 | 60 | 1014.0 |
| 20260504150348 | 6 | 5 | 0.0 | 11.3 | 0.00 | 0.00 | 0.00 | 64 | 1014.2 |
| 20260504140335 | 6 | 321 | 0.0 | 3.2 | 0.00 | 0.00 | 0.00 | 63 | 1014.2 |
| 20260504130336 | 6 | 5 | 0.0 | 3.2 | 0.00 | 0.00 | 0.00 | 61 | 1013.7 |
| 20260504110339 | 3 | 306 | 0.0 | 3.2 | 0.00 | 0.00 | 0.00 | 71 | 1010.7 |
| 20260504100348 | 3 | 63 | 0.0 | 0.0 | 0.00 | 0.00 | 0.00 | 72 | 1008.1 |
| 20260504081829 | 6 | 148 | 0.0 | 0.0 | 0.00 | 0.00 | 0.00 | 68 | 1007.2 |
| 20260504080413 | 6 | 141 | 0.0 | 0.0 | 0.00 | 0.00 | 0.00 | 68 | 1007.3 |
| 20260504070402 | 7 | 300 | 0.0 | 0.0 | 0.00 | 0.00 | 0.00 | 62 | 1007.4 |
| 20260504050348 | 7 | 346 | 0.0 | 0.0 | 0.00 | 0.00 | 0.00 | 66 | 1007.1 |